Weather History for Springfield, MO

Change the Weather History Date:

Thursday, October 16, 2014

  Actual Average Record
Temperature  
Mean Temperature 59 °F 58 °F  
Max Temperature 77 °F 69 °F 85 °F (1950)
Min Temperature 40 °F 47 °F 28 °F (1966)
Degree Days  
Heating Degree Days 6 8  
Month to date heating degree days 89 100  
Since 1 July heating degree days 120 155  
Cooling Degree Days 0 1  
Month to date cooling degree days 29 22  
Year to date cooling degree days 1454 1381  
Growing Degree Days 8 (Base 50)    
Moisture  
Dew Point 45 °F    
Average Humidity 63    
Maximum Humidity 89    
Minimum Humidity 36    
Precipitation  
Precipitation 0.00 in 0.11 in 1.42 in (1899)
Month to date precipitation 7.22 1.83  
Year to date precipitation 34.19 36.55  
Snow  
Snow 0.00 in - - ()
Month to date snowfall 0.0  
Since 1 July snowfall 0.0  
Since 1 September snowfall 0.0  
Snow Depth 0.00 in    
Sea Level Pressure  
Sea Level Pressure 29.86 in    
Wind  
Wind Speed 9 mph (SSE)    
Max Wind Speed 18 mph    
Max Gust Speed 22 mph    
Visibility 10 miles    
Events      
T = Trace of Precipitation, MM = Missing Value Source: NWS Daily Summary

Daily Weather History Graph

Daily Weather History Graph

Search for Another Location

Airport:

Trip Planner

Search our weather history database for the weather conditions in past years. The results will help you decide how hot, cold, wet, or windy it might be!

Date:

Astronomy

Oct. 16, 2014 Rise Set
Actual Time 7:22 AM CDT 6:35 PM CDT
Civil Twilight 6:56 AM CDT 7:01 PM CDT
Nautical Twilight 6:25 AM CDT 7:31 PM CDT
Astronomical Twilight 5:55 AM CDT 8:01 PM CDT
Moon 12:41 AM CDT (10/16) 2:39 PM CDT (10/16)
Length of Visible Light 12h 05m
Length of Day
11h 12m
Last Quarter, 41% of the Moon is Illuminated
Oct 16
Last Quarter
Oct 23
New
Oct 30
First Quarter
Nov 6
Full
Nov 14
Last Quarter

Hourly Weather History & Observations

Time (CDT) Temp. Windchill Dew Point Humidity Pressure Visibility Wind Dir Wind Speed Gust Speed Precip Events Conditions
12:52 AM 42.8 °F - 39.2 °F 87% 29.93 in 10.0 mi Calm Calm - N/A   Clear
1:52 AM 42.1 °F 40.2 °F 37.9 °F 85% 29.92 in 10.0 mi SE 3.5 mph - N/A   Clear
2:52 AM 41.0 °F 37.1 °F 37.0 °F 86% 29.93 in 10.0 mi SSE 5.8 mph - N/A   Clear
3:52 AM 41.0 °F 38.0 °F 37.4 °F 87% 29.93 in 10.0 mi SSE 4.6 mph - N/A   Clear
4:52 AM 42.1 °F 39.2 °F 37.9 °F 85% 29.92 in 10.0 mi SSE 4.6 mph - N/A   Clear
5:52 AM 42.1 °F 37.7 °F 39.0 °F 89% 29.94 in 10.0 mi SSE 6.9 mph - N/A   Clear
6:52 AM 42.1 °F 36.6 °F 39.0 °F 89% 29.92 in 10.0 mi SE 9.2 mph - N/A   Clear
7:52 AM 43.0 °F 38.8 °F 39.9 °F 89% 29.93 in 10.0 mi SSE 6.9 mph - N/A   Clear
8:52 AM 48.9 °F - 44.1 °F 83% 29.94 in 10.0 mi South 6.9 mph - N/A   Clear
9:52 AM 57.0 °F - 46.0 °F 67% 29.92 in 10.0 mi South 10.4 mph - N/A   Clear
10:52 AM 64.0 °F - 46.0 °F 52% 29.91 in 10.0 mi South 13.8 mph - N/A   Clear
11:52 AM 69.1 °F - 46.0 °F 44% 29.90 in 10.0 mi South 13.8 mph - N/A   Clear
12:52 PM 73.0 °F - 46.9 °F 39% 29.88 in 10.0 mi South 10.4 mph - N/A   Clear
1:52 PM 75.0 °F - 46.9 °F 37% 29.83 in 10.0 mi South 12.7 mph - N/A   Clear
2:52 PM 77.0 °F - 48.0 °F 36% 29.81 in 10.0 mi South 10.4 mph - N/A   Clear
3:52 PM 77.0 °F - 48.9 °F 37% 29.79 in 10.0 mi South 11.5 mph - N/A   Clear
4:52 PM 75.9 °F - 51.1 °F 42% 29.77 in 10.0 mi South 10.4 mph - N/A   Clear
5:52 PM 73.9 °F - 53.1 °F 48% 29.76 in 10.0 mi SSE 9.2 mph - N/A   Clear
6:52 PM 69.1 °F - 52.0 °F 54% 29.76 in 10.0 mi SSE 11.5 mph - N/A   Clear
7:52 PM 64.0 °F - 52.0 °F 65% 29.79 in 10.0 mi South 9.2 mph - N/A   Clear
8:52 PM 60.1 °F - 53.1 °F 78% 29.80 in 10.0 mi South 9.2 mph - N/A   Clear
9:52 PM 60.1 °F - 51.1 °F 72% 29.80 in 10.0 mi South 9.2 mph - N/A   Clear
10:52 PM 59.0 °F - 51.1 °F 75% 29.79 in 10.0 mi South 9.2 mph - N/A   Clear
11:52 PM 57.9 °F - 52.0 °F 81% 29.79 in 10.0 mi South 9.2 mph - N/A   Clear